Weather History for KMHS - August, 2013

Change the Weather History Date:

Thursday, August 8, 2013

  Actual Average Record
Temperature  
Mean Temperature 63 °F 68 °F  
Max Temperature 83 °F 87 °F 104 °F (1981)
Min Temperature 43 °F 49 °F 40 °F (1947)
Degree Days  
Heating Degree Days 2 1  
Month to date heating degree days 3 8  
Since 1 June heating degree days 90 183  
Since 1 July heating degree days 3 41  
Cooling Degree Days 0 4  
Month to date cooling degree days 12 32  
Year to date cooling degree days 343 200  
Since 1 June cooling degree days 334 192  
Growing Degree Days 13 (Base 50)    
Moisture  
Dew Point 41 °F    
Average Humidity 51    
Maximum Humidity 77    
Minimum Humidity 26    
Precipitation  
Precipitation 0.00 in 0.01 in 0.20 in (1968)
Month to date precipitation 0.00 0.08  
Year to date precipitation 7.18 27.07  
Sea Level Pressure  
Sea Level Pressure 30.02 in    
Wind  
Wind Speed 0 mph (North)    
Max Wind Speed 7 mph    
Max Gust Speed 14 mph    
Visibility 10 miles    
Events      
T = Trace of Precipitation, MM = Missing Value Source: NWS Daily Summary

Daily Weather History Graph

Daily Weather History Graph

Search for Another Location

Airport or City:

Trip Planner

Search our weather history database for the weather conditions in past years. The results will help you decide how hot, cold, wet, or windy it might be!

Date:

Astronomy

Aug. 08, 2013 Rise Set
Actual Time 6:11 AM PDT 8:17 PM PDT
Civil Twilight 5:41 AM PDT 8:47 PM PDT
Nautical Twilight 5:04 AM PDT 9:24 PM PDT
Astronomical Twilight 4:23 AM PDT 10:05 PM PDT
Moon 8:05 AM PDT (8/8) 8:56 PM PDT (8/8)
Length of Visible Light 15h 06m
Length of Day
14h 05m
Waxing Crescent, 3% of the Moon is Illuminated
Aug 8
Waxing Crescent
Aug 14
First Quarter
Aug 20
Full
Aug 28
Last Quarter
Sep 5
New

Hourly Weather History & Observations

Time (PDT) Temp. Dew Point Humidity Pressure Visibility Wind Dir Wind Speed Gust Speed Precip Events Conditions
12:56 AM 48.9 °F 37.9 °F 66% 30.07 in 10.0 mi Calm Calm - N/A   Clear
1:56 AM 48.0 °F 41.0 °F 77% 30.06 in 10.0 mi Calm Calm - N/A   Clear
2:56 AM 48.0 °F 41.0 °F 77% 30.06 in 10.0 mi Calm Calm - N/A   Clear
3:56 AM 46.0 °F 39.0 °F 76% 30.06 in 10.0 mi Calm Calm - N/A   Clear
4:56 AM 46.9 °F 37.9 °F 71% 30.05 in 10.0 mi Calm Calm - N/A   Clear
5:56 AM 44.1 °F 37.0 °F 76% 30.07 in 10.0 mi Calm Calm - N/A   Clear
6:56 AM 45.0 °F 37.9 °F 76% 30.07 in 10.0 mi Calm Calm - N/A   Clear
7:56 AM 55.0 °F 42.1 °F 62% 30.05 in 10.0 mi Calm Calm - N/A   Clear
8:56 AM 60.1 °F 46.0 °F 60% 30.05 in 10.0 mi Calm Calm - N/A   Clear
9:56 AM 64.9 °F 46.0 °F 50% 30.05 in 10.0 mi Calm Calm - N/A   Clear
10:56 AM 69.1 °F 48.0 °F 47% 30.04 in 7.0 mi Calm Calm - N/A   Clear
11:56 AM 73.9 °F 48.0 °F 40% 30.02 in 8.0 mi Calm Calm - N/A   Clear
12:56 PM 77.0 °F 48.0 °F 36% 30.01 in 9.0 mi Calm Calm - N/A   Clear
1:56 PM 78.1 °F 45.0 °F 31% 30.00 in 10.0 mi Variable 3.5 mph - N/A   Clear
2:56 PM 82.0 °F 44.1 °F 26% 29.98 in 10.0 mi Calm Calm - N/A   Clear
3:56 PM 79.0 °F 42.1 °F 27% 29.98 in 10.0 mi Variable 3.5 mph - N/A   Clear
4:56 PM 78.1 °F 42.1 °F 28% 29.97 in 10.0 mi Calm Calm - N/A   Clear
5:56 PM 75.9 °F 39.9 °F 27% 29.97 in 10.0 mi Calm Calm - N/A   Clear
6:56 PM 73.0 °F 39.0 °F 29% 29.97 in 10.0 mi Variable 3.5 mph - N/A   Clear
7:56 PM 69.1 °F 39.9 °F 35% 29.97 in 10.0 mi Calm Calm - N/A   Clear
8:56 PM 63.0 °F 37.9 °F 40% 29.99 in 10.0 mi Calm Calm - N/A   Clear
9:56 PM 60.1 °F 37.0 °F 42% 30.01 in 10.0 mi Calm Calm - N/A   Clear
10:56 PM 57.0 °F 39.0 °F 51% 30.01 in 10.0 mi Calm Calm - N/A   Clear
11:56 PM 51.1 °F 39.0 °F 63% 30.02 in 10.0 mi Calm Calm - N/A   Clear